Flag for Macedonia, Republic of Weather past 2 weeks in Skopje, Macedonia, Republic of

Now
57 °F

Partly sunny.


Feels Like: 55 °F
Forecast: 48 / 71 °F
Wind: 12 mph from North

Location: Skopje-Petrovec

Current Time: May 28, 2015 at 7:06:17 PM

Latest Report: May 28, 2015 at 6:30 PM


Visibility: N/A

Pressure: 29.98 "Hg

Humidity: 59%

Dew point: 43 °F

Location of SkopjeLocation

Historic Weather in Skopje — Graph

°F

Skopje temperature yesterday

Maximum temperature yesterday: 70 °F (at 11:00 AM)
Minimum temperature yesterday: 57 °F (at 4:00 AM)
Average temperature yesterday: 63 °F

Past Weeks' High & Low Weather Summary

 TemperatureHumidityPressure
High84 °F (May 14, 5:00 PM)100% (May 17, 4:30 AM)30.12 "Hg (May 17, 4:30 AM)
Low46 °F (May 26, 5:30 AM)29% (May 14, 5:00 PM)29.71 "Hg (May 26, 5:30 PM)
Average67 °F66%29.91 "Hg
* Reported May 13 6:00 PM — May 28 6:00 PM, Skopje, Weather by CustomWeather, © 2015

Note: Actual official high and low records may vary slightly from our data, if they occured in-between our weather recording intervals... More about our weather records

Advertising

Skopje weather history for previous 24 hours

 ConditionsComfort  
Time TempWeatherWind HumidityBarometerVisibility
6:00 PM
Thu, May 28
57 °FPartly sunny.13 mph59%29.98 "HgN/A
5:30 PM61 °FPartly sunny.10 mph55%29.98 "HgN/A
5:00 PM59 °FPartly sunny.10 mph55%29.98 "HgN/A
4:30 PM59 °FPartly sunny.13 mph55%29.98 "HgN/A
4:00 PM59 °FPartly sunny.16 mph55%29.98 "HgN/A
3:30 PM59 °FPartly sunny.15 mph55%29.98 "HgN/A
3:00 PM61 °FPartly sunny.15 mph52%29.98 "HgN/A
2:30 PM61 °FPartly sunny.14 mph48%29.98 "HgN/A
2:00 PM63 °FPartly sunny.14 mph49%29.95 "HgN/A
1:30 PM63 °FPartly sunny.16 mph45%29.95 "HgN/A
1:00 PM61 °FOvercast.13 mph45%29.98 "HgN/A
12:30 PM61 °FMore clouds than sun.18 mph48%29.95 "HgN/A
12:00 PM61 °FMore clouds than sun.14 mph45%29.98 "HgN/A
11:30 AM63 °FMore clouds than sun.14 mph42%29.98 "HgN/A
11:00 AM61 °FOvercast.14 mph39%29.98 "HgN/A
10:30 AM59 °FOvercast.12 mph45%29.98 "HgN/A
10:00 AM59 °FOvercast.15 mph48%29.98 "HgN/A
9:30 AM57 °FOvercast.13 mph59%29.98 "HgN/A
9:00 AM57 °FOvercast.16 mph59%29.98 "HgN/A
8:30 AM57 °FOvercast.14 mph59%29.98 "HgN/A
8:00 AM57 °FOvercast.15 mph55%29.98 "HgN/A
7:30 AM55 °FOvercast.12 mph63%29.98 "HgN/A
7:00 AM55 °FOvercast.5 mph63%29.98 "HgN/A
6:30 AM54 °FOvercast.1 mph67%29.98 "HgN/A
6:00 AM54 °FPassing clouds.5 mph67%29.95 "HgN/A
5:30 AM52 °FPassing clouds.2 mph72%29.95 "HgN/A
5:00 AM52 °FPassing clouds.2 mph72%29.95 "HgN/A
4:30 AM52 °FPassing clouds.3 mph72%29.95 "HgN/A
4:00 AM54 °FPassing clouds.9 mph67%29.95 "HgN/A
3:30 AM54 °FPassing clouds.5 mph67%29.95 "HgN/A
3:00 AM54 °FPassing clouds.5 mph67%29.98 "HgN/A
2:30 AM57 °FPassing clouds.9 mph59%29.95 "HgN/A
2:00 AM57 °FOvercast.7 mph59%29.95 "HgN/A
1:30 AM57 °FOvercast.14 mph59%29.95 "HgN/A
1:00 AM57 °FOvercast.14 mph59%29.98 "HgN/A
12:30 AM57 °FOvercast.16 mph59%29.95 "HgN/A
12:00 AM57 °FOvercast.14 mph63%29.95 "HgN/A
11:30 PM
Wed, May 27
57 °FOvercast.17 mph63%29.95 "HgN/A
11:00 PM57 °FMostly cloudy.21 mph63%29.95 "HgN/A
10:30 PM57 °FMostly cloudy.9 mph63%29.95 "HgN/A
10:00 PM59 °FOvercast.16 mph59%29.95 "HgN/A
9:30 PM59 °FOvercast.15 mph59%29.95 "HgN/A
9:00 PM57 °FPassing clouds.16 mph67%29.92 "HgN/A
8:30 PM59 °FPartly sunny.21 mph63%29.92 "HgN/A
8:00 PM59 °FPartly sunny.18 mph63%29.89 "HgN/A
7:30 PM59 °FScattered clouds.23 mph63%29.89 "HgN/A
7:00 PM61 °FBroken clouds.23 mph59%29.86 "HgN/A
Weather by CustomWeather, © 2015

See weather overviewHow to use our weather pages